Wetbulb
59.53 59.29 59.24 59.09 58.97 58.85 58.86 59.11 59.36 59.44 59.44 59.17 58.80 58.65 58.39 58.18 57.88 57.84 57.81 57.73 57.67 57.56 57.47 57.47 57.55 57.60 57.62 57.41 57.29 57.23 57.30 57.43 57.45 57.68 57.95 57.99 57.88 57.77 57.79 57.88 57.92 57.49 56.99 56.62 56.42 56.58 56.97 57.38 57.05 56.88 56.87 57.20 57.49 57.06 56.23 55.31 54.08 53.12 52.24 51.48 50.79 50.06 49.36 48.74 48.33 48.06 47.84 47.48 47.30
59.23 59.19 59.21 59.22 59.08 58.97 58.98 59.11 59.35 59.56 59.59 59.64 59.34 59.05 58.77 58.43 58.12 57.96 57.80 57.65 57.71 57.67 57.59 57.48 57.37 57.38 57.52 57.37 57.40 57.38 57.45 57.48 57.58 57.68 57.86 57.87 57.96 57.96 57.94 57.87 57.54 57.29 56.85 56.38 56.15 56.28 56.74 57.27 57.13 57.08 56.98 56.91 56.37 55.46 54.47 53.50 52.54 51.56 50.59 49.94 49.63 49.22 48.73 48.15 47.79 47.39 47.08 46.76 46.45
59.25 59.21 59.09 58.97 58.82 58.82 58.84 59.04 59.21 59.36 59.45 59.69 59.71 59.41 59.16 58.82 58.57 58.25 58.03 57.94 57.83 57.72 57.59 57.50 57.53 57.48 57.37 57.34 57.41 57.51 57.62 57.75 57.73 57.67 57.76 57.75 57.85 57.92 57.82 57.66 57.28 57.08 57.00 56.65 56.33 56.52 56.99 57.60 57.15 56.78 56.26 55.59 54.34 53.35 52.56 51.92 51.40 50.58 49.67 49.01 48.96 48.69 48.28 47.84 47.39 46.99 46.54 45.96 45.21
59.42 59.17 58.83 58.69 58.52 58.55 58.83 59.21 59.37 59.60 59.79 60.06 59.83 59.66 59.47 59.32 59.06 58.79 58.49 58.15 57.97 57.75 57.59 57.64 57.79 57.87 57.79 57.55 57.34 57.48 57.73 57.92 57.81 57.71 57.61 57.67 57.90 57.83 57.71 57.52 57.30 57.24 57.13 57.15 56.99 57.07 57.29 57.53 56.76 55.95 55.01 54.18 52.98 52.22 51.63 51.08 50.42 49.84 49.18 48.69 48.33 47.93 47.43 47.12 46.67 46.23 45.48 44.55 43.53
59.36 59.21 59.07 58.91 58.79 58.93 59.25 59.65 59.84 60.02 60.29 60.45 60.11 59.97 59.80 59.64 59.44 59.10 58.76 58.51 58.34 58.11 57.93 57.78 58.09 58.21 58.06 57.73 57.36 57.41 57.64 57.78 57.74 57.70 57.67 57.80 58.00 57.95 57.70 57.44 57.37 57.42 57.54 57.56 57.40 57.18 56.94 56.50 55.74 54.91 54.03 53.23 52.42 51.61 50.93 50.29 49.67 49.22 48.91 48.50 47.97 47.48 46.99 46.36 45.87 45.17 44.34 43.37 42.11
59.43 59.31 59.21 59.31 59.33 59.58 59.89 60.31 60.41 60.54 60.65 60.65 60.22 60.01 59.86 59.82 59.68 59.31 58.95 58.66 58.59 58.26 58.05 57.93 58.17 58.16 57.94 57.60 57.58 57.63 57.67 57.59 57.66 57.70 57.86 58.21 58.12 57.83 57.55 57.44 57.63 57.76 57.90 57.77 57.27 56.69 56.06 55.29 54.81 54.04 53.24 52.47 51.65 51.07 50.57 49.94 49.04 48.42 47.93 47.48 47.21 46.81 46.32 45.61 45.04 44.39 43.42 42.09 40.97
59.51 59.37 59.37 59.59 59.83 60.06 60.37 60.60 60.83 60.91 60.79 60.65 60.08 59.84 59.79 59.82 59.66 59.35 59.07 59.21 59.09 58.79 58.57 58.52 58.24 58.05 57.96 57.75 57.81 57.81 57.65 57.44 57.49 57.82 58.17 58.53 58.03 57.75 57.75 57.90 58.04 58.07 57.90 57.64 56.81 56.05 55.28 54.52 53.92 53.34 52.79 52.25 51.49 50.77 50.17 49.63 48.51 47.61 46.85 46.40 46.36 46.05 45.56 44.81 44.34 43.78 42.86 41.61 41.29
59.69 59.65 59.75 59.99 60.25 60.42 60.56 60.71 60.93 60.91 60.70 60.67 60.28 60.02 59.82 59.82 59.77 59.59 59.52 59.54 59.43 59.19 59.05 58.90 58.41 58.24 58.14 58.17 58.11 57.88 57.59 57.40 57.63 57.89 58.20 58.29 57.94 57.95 58.18 58.35 58.10 57.74 57.27 56.61 55.70 54.92 54.22 53.66 53.10 52.57 51.90 51.23 50.46 49.74 49.15 48.51 47.66 46.76 45.95 45.59 45.46 45.24 44.94 44.58 44.24 43.64 42.89 41.93 41.28
59.79 59.75 59.95 60.23 60.54 60.59 60.78 60.79 60.86 60.78 60.61 60.45 60.30 60.17 60.06 60.07 59.94 59.90 59.76 59.72 59.65 59.59 59.43 59.08 58.69 58.52 58.44 58.44 58.24 57.92 57.78 57.68 57.79 57.93 58.14 58.14 57.95 57.92 57.77 57.47 56.96 56.45 55.89 55.37 54.57 53.73 53.03 52.67 52.15 51.53 50.86 50.19 49.20 48.52 47.93 47.44 46.63 45.87 45.28 44.96 44.75 44.49 44.25 44.08 43.65 43.06 42.39 41.35 40.13
59.55 59.76 60.00 60.29 60.41 60.61 60.83 60.78 60.71 60.62 60.43 60.30 60.29 60.21 60.19 59.97 60.11 60.15 60.18 60.16 60.00 59.79 59.56 59.33 59.04 58.76 58.66 58.45 58.24 58.04 57.97 58.03 57.99 58.02 57.98 57.98 57.67 57.23 56.67 56.16 55.60 55.01 54.50 54.10 53.48 52.77 51.92 51.38 50.62 49.90 49.33 48.74 47.93 47.39 46.90 46.54 45.82 45.24 44.79 44.56 44.08 43.58 43.04 42.89 42.63 41.92 41.04 40.15 38.87
59.51 59.83 60.21 60.43 60.37 60.55 60.69 60.60 60.62 60.58 60.43 60.36 60.35 60.27 60.27 60.17 60.21 60.36 60.36 60.41 60.10 59.72 59.45 59.44 59.20 59.04 58.77 58.58 58.39 58.20 58.06 58.18 58.16 58.09 57.93 57.72 57.26 56.67 55.94 55.21 54.52 53.93 53.32 52.89 52.36 51.60 50.79 49.98 49.09 48.28 47.75 47.44 46.94 46.45 46.09 45.64 45.11 44.57 44.08 43.90 43.35 42.48 41.75 41.55 41.24 40.53 39.63 38.73 37.55
59.68 60.00 60.30 60.54 60.55 60.65 60.60 60.47 60.61 60.55 60.43 60.34 60.32 60.35 60.47 60.52 60.46 60.45 60.32 60.19 59.79 59.58 59.45 59.54 59.36 59.16 58.96 58.81 58.51 58.30 58.18 58.21 58.15 58.05 57.75 57.32 56.71 56.04 55.26 54.44 53.71 52.97 52.40 51.87 51.30 50.60 49.75 48.85 47.97 47.21 46.67 46.45 46.14 45.78 45.34 44.90 44.36 43.83 43.31 42.93 42.25 41.30 40.56 40.04 39.74 39.20 38.43 37.44 36.34
59.84 60.22 60.43 60.64 60.58 60.52 60.47 60.48 60.60 60.53 60.41 60.32 60.45 60.50 60.61 60.60 60.54 60.44 60.29 59.93 59.68 59.64 59.61 59.60 59.44 59.22 59.02 58.85 58.62 58.56 58.42 58.29 58.12 57.86 57.41 56.69 55.94 55.13 54.31 53.56 52.82 52.20 51.54 51.09 50.52 49.68 48.80 48.04 47.25 46.63 46.10 45.79 45.52 45.22 44.78 44.30 43.69 43.05 42.41 41.74 41.13 40.38 39.62 39.12 38.58 37.97 37.24 36.33 35.61
60.13 60.43 60.58 60.73 60.55 60.54 60.40 60.36 60.43 60.45 60.41 60.28 60.48 60.60 60.59 60.63 60.57 60.53 60.42 60.13 59.81 59.80 59.72 59.54 59.36 59.28 59.14 58.92 58.85 58.75 58.49 58.31 57.86 57.18 56.42 55.59 54.82 54.00 53.26 52.69 51.99 51.41 50.91 50.46 49.79 49.00 48.16 47.42 46.80 46.19 45.66 45.13 44.82 44.61 44.19 43.76 43.08 42.37 41.65 40.85 39.95 39.31 38.67 38.27 37.74 37.04 36.35 35.52 34.97
60.28 60.50 60.63 60.65 60.54 60.48 60.42 60.29 60.37 60.36 60.32 60.21 60.46 60.64 60.72 60.76 60.66 60.62 60.45 60.18 60.04 59.90 59.84 59.51 59.38 59.16 59.03 58.93 58.63 58.35 58.02 57.57 56.82 55.92 55.08 54.35 53.69 53.04 52.44 51.83 51.21 50.57 50.02 49.44 48.81 48.20 47.54 46.93 46.41 45.84 45.27 44.66 44.23 43.98 43.56 43.19 42.64 41.98 41.19 40.24 39.46 38.76 38.11 37.49 37.00 36.43 35.58 34.81 34.18
60.26 60.41 60.49 60.51 60.38 60.28 60.26 60.21 60.37 60.41 60.32 60.30 60.49 60.63 60.70 60.73 60.73 60.64 60.45 60.25 60.18 60.08 59.81 59.39 59.10 58.89 58.59 58.26 57.85 57.46 56.96 56.31 55.54 54.71 53.97 53.39 52.82 52.24 51.54 50.80 50.05 49.37 48.78 48.24 47.76 47.28 46.84 46.49 46.05 45.53 44.93 44.37 43.86 43.44 43.06 42.56 41.99 41.33 40.59 39.77 39.02 38.24 37.57 37.03 36.41 35.68 34.94 34.38 33.77
60.13 60.26 60.35 60.24 60.08 60.00 60.05 60.13 60.29 60.37 60.30 60.30 60.42 60.48 60.59 60.78 60.79 60.54 60.26 60.14 60.01 59.71 59.19 58.84 58.59 58.07 57.61 57.16 56.85 56.48 55.90 55.17 54.51 53.84 53.23 52.69 52.01 51.30 50.51 49.69 48.94 48.31 47.82 47.37 46.84 46.45 46.23 45.97 45.66 45.14 44.67 43.99 43.40 42.81 42.19 41.58 40.88 40.27 39.57 38.91 38.28 37.65 37.11 36.73 35.85 35.01 34.51 34.17 33.60
60.06 60.09 60.16 59.91 59.83 59.75 59.83 59.87 60.06 60.19 60.19 60.19 60.22 60.34 60.50 60.63 60.59 60.35 60.02 59.66 59.35 58.80 58.27 57.90 57.76 57.28 56.79 56.37 56.09 55.71 55.18 54.47 53.80 53.24 52.67 52.00 51.25 50.46 49.59 48.76 48.23 47.83 47.43 46.98 46.36 46.01 45.62 45.40 45.01 44.54 44.03 43.31 42.65 41.86 41.13 40.32 39.59 38.97 38.43 37.88 37.43 36.85 36.28 35.89 35.14 34.67 34.36 34.04 33.78
59.92 59.91 59.84 59.62 59.69 59.70 59.70 59.68 59.88 59.98 60.11 60.09 60.10 60.17 60.24 60.22 60.08 59.72 59.35 58.90 58.40 57.97 57.52 57.05 56.79 56.53 56.18 55.80 55.37 54.91 54.46 53.77 53.04 52.39 51.73 51.15 50.31 49.53 48.79 48.13 47.79 47.43 47.08 46.63 46.14 45.70 45.23 44.75 44.28 43.65 42.81 42.03 41.20 40.51 39.74 39.01 38.40 37.82 37.35 36.97 36.46 35.96 35.48 35.00 34.66 34.51 34.39 34.19 33.90
59.81 59.75 59.63 59.54 59.58 59.63 59.72 59.72 59.91 59.94 59.93 60.04 59.95 59.86 59.82 59.69 59.45 58.93 58.36 57.87 57.59 57.18 56.82 56.19 55.90 55.59 55.34 54.91 54.46 53.95 53.47 52.90 52.08 51.34 50.68 50.14 49.44 48.78 48.08 47.60 47.25 46.90 46.54 46.19 45.75 45.18 44.54 43.90 43.19 42.36 41.41 40.46 39.56 38.87 38.22 37.62 37.10 36.60 36.19 35.89 35.36 34.99 34.70 34.48 34.32 34.22 34.15 34.08 33.66
59.68 59.61 59.58 59.57 59.58 59.63 59.75 59.83 59.79 59.77 59.76 59.83 59.73 59.63 59.48 59.22 58.65 58.07 57.57 57.10 56.88 56.45 56.04 55.55 55.13 54.81 54.34 53.82 53.32 52.75 52.35 51.94 51.20 50.50 49.84 49.22 48.65 48.03 47.64 47.20 46.81 46.50 46.10 45.61 45.09 44.36 43.65 42.90 41.99 41.00 40.06 39.08 38.32 37.51 36.84 36.25 35.68 35.23 34.93 34.84 34.57 34.39 34.30 34.27 34.19 34.04 33.87 33.72 33.44
59.58 59.49 59.58 59.58 59.59 59.63 59.76 59.79 59.72 59.63 59.66 59.66 59.61 59.43 59.05 58.46 57.89 57.42 57.03 56.64 56.23 55.83 55.32 54.87 54.41 53.82 53.27 52.71 52.11 51.54 51.18 50.78 50.06 49.49 48.88 48.26 47.78 47.33 47.07 46.67 46.23 45.79 45.21 44.69 43.82 43.07 42.25 41.33 40.47 39.63 38.77 37.90 37.04 36.37 35.75 35.19 34.58 34.26 34.09 34.02 34.08 34.15 34.16 34.19 34.14 33.94 33.73 33.60 33.42
59.44 59.38 59.43 59.55 59.59 59.51 59.39 59.52 59.60 59.61 59.64 59.64 59.38 58.94 58.34 57.75 57.23 56.82 56.47 56.09 55.56 54.98 54.58 54.08 53.43 52.82 52.17 51.47 50.82 50.21 49.60 49.11 48.58 48.13 47.65 47.20 46.72 46.28 45.97 45.62 45.13 44.42 43.80 43.05 42.05 41.07 40.19 39.38 38.74 38.10 37.47 36.73 35.83 35.24 34.81 34.43 34.08 33.72 33.49 33.43 33.68 33.78 33.89 33.90 33.86 33.89 33.85 33.88 33.85
59.33 59.33 59.54 59.77 59.69 59.72 59.65 59.56 59.62 59.62 59.55 59.19 58.70 58.09 57.50 56.89 56.54 56.04 55.65 55.18 54.59 54.00 53.49 52.93 52.28 51.59 50.93 50.36 49.62 48.93 48.22 47.61 47.12 46.63 46.36 46.06 45.62 45.13 44.66 44.10 43.55 42.82 42.20 41.94 41.18 40.37 39.38 38.27 37.29 36.75 36.35 35.91 35.16 34.70 34.33 33.89 33.56 33.35 33.24 33.30 33.43 33.49 33.56 33.63 33.69 33.88 34.03 34.21 34.58
59.33 59.25 59.44 59.77 59.90 59.91 59.84 59.74 59.57 59.36 59.06 58.46 57.84 57.30 56.74 56.26 55.85 55.18 54.61 53.88 53.32 52.66 52.05 51.49 50.92 50.43 49.82 49.21 48.56 47.91 47.29 46.63 46.19 45.70 45.30 44.95 44.65 44.13 43.69 43.13 42.67 42.29 42.04 42.12 42.52 42.15 41.10 39.53 37.84 36.65 35.84 35.44 34.92 34.47 33.99 33.54 33.35 33.43 33.64 33.72 33.65 33.57 33.48 33.49 33.75 34.06 34.51 34.87 35.44
59.26 59.30 59.54 59.86 59.95 59.84 59.74 59.57 59.33 58.85 58.31 57.67 57.17 56.61 56.08 55.58 55.00 54.16 53.33 52.51 51.93 51.45 50.92 50.43 50.04 49.60 49.07 48.33 47.77 47.29 46.81 46.28 45.75 45.17 44.60 44.11 43.68 43.33 42.99 42.56 42.27 42.10 42.36 43.00 43.23 42.89 42.19 41.32 39.90 38.10 36.30 35.01 34.56 34.16 33.86 33.59 33.56 33.71 33.79 33.79 33.96 33.87 33.91 33.91 34.18 34.67 35.16 35.76 35.92
59.20 59.37 59.58 59.88 59.83 59.77 59.55 59.30 58.81 58.19 57.48 56.94 56.43 55.89 55.35 54.70 53.90 52.98 52.11 51.33 50.93 50.53 50.12 49.77 49.34 48.99 48.55 47.89 47.28 46.76 46.28 45.92 45.40 44.78 44.16 43.64 43.06 42.67 42.49 42.29 42.18 42.35 42.83 43.77 43.73 43.27 42.65 41.83 40.85 39.31 37.27 35.00 34.48 34.09 33.94 33.94 33.85 33.91 33.95 33.96 34.14 34.33 34.48 34.51 34.73 35.12 35.42 35.49 35.56
59.19 59.44 59.65 59.79 59.66 59.50 59.22 58.83 58.00 57.37 56.83 56.25 55.72 54.99 54.32 53.56 52.72 51.89 51.15 50.58 50.23 49.87 49.48 49.13 48.91 48.60 48.12 47.37 46.76 46.10 45.66 45.31 44.86 44.34 43.82 43.38 42.89 42.50 42.33 42.26 42.29 42.74 43.48 44.28 44.02 43.39 42.69 41.91 41.01 39.92 38.45 36.34 35.01 34.58 34.56 34.45 34.49 34.60 34.67 34.71 34.82 34.81 34.93 35.10 35.33 35.35 35.33 35.10 35.25
59.29 59.50 59.68 59.63 59.44 59.11 58.58 57.92 57.27 56.67 56.18 55.54 54.91 54.10 53.35 52.51 51.76 51.10 50.49 49.97 49.58 49.15 48.89 48.71 48.57 48.08 47.51 46.54 46.01 45.44 45.04 44.69 44.38 43.90 43.46 42.94 42.59 42.37 42.38 42.39 42.60 43.26 44.11 44.69 44.02 43.31 42.61 41.87 41.17 40.52 39.58 38.23 36.23 35.48 35.39 35.42 35.34 35.38 35.49 35.59 35.48 35.40 35.44 35.57 35.66 35.51 35.23 35.00 34.93
59.37 59.62 59.59 59.37 58.94 58.41 57.81 57.20 56.63 56.14 55.47 54.84 53.99 53.14 52.38 51.68 51.02 50.36 49.88 49.32 49.02 48.80 48.62 48.44 47.91 47.16 46.36 45.70 45.30 44.90 44.46 44.19 44.03 43.59 43.12 42.55 42.25 42.26 42.45 42.60 42.71 43.27 44.03 44.57 43.89 43.27 42.61 41.99 41.50 41.01 40.39 39.53 37.60 36.44 35.80 35.89 35.89 35.89 36.08 36.17 35.94 35.84 35.73 35.73 35.34 35.06 34.92 34.98 34.80
59.57 59.59 59.40 58.96 58.33 57.63 57.13 56.61 56.07 55.44 54.72 53.96 53.10 52.26 51.56 50.90 50.29 49.77 49.37 49.03 48.76 48.58 48.27 47.78 46.94 46.19 45.65 45.38 44.98 44.54 44.13 43.96 43.75 43.37 42.91 42.57 42.52 42.44 42.37 42.40 42.63 43.19 43.86 44.36 43.81 43.27 42.77 42.28 41.83 41.50 41.08 40.50 38.65 37.26 36.46 36.38 36.34 36.42 36.56 36.63 36.34 36.17 35.98 35.83 35.38 34.98 34.76 34.54 34.38
59.70 59.40 58.95 58.23 57.48 56.94 56.36 55.85 55.23 54.51 53.70 52.90 52.19 51.48 50.79 50.19 49.80 49.40 49.13 48.77 48.32 47.87 47.39 46.72 46.01 45.52 45.15 44.89 44.53 44.17 43.91 43.60 43.40 43.15 42.87 42.54 42.29 42.17 42.15 42.30 42.43 42.98 43.69 44.23 43.81 43.44 43.06 42.65 42.32 41.99 41.66 41.12 39.51 37.93 36.96 36.99 36.85 36.79 36.69 36.57 36.29 35.97 35.76 35.82 35.15 34.28 33.59 33.17 32.79
59.42 58.87 58.17 57.31 56.63 56.05 55.51 54.91 54.19 53.48 52.78 52.02 51.27 50.62 50.06 49.59 49.37 49.05 48.73 48.37 47.74 47.16 46.50 45.96 45.34 44.88 44.56 44.30 44.03 43.81 43.60 43.44 43.24 43.13 43.01 42.64 42.22 42.02 41.99 42.09 42.26 43.10 43.94 44.32 43.98 43.65 43.31 42.94 42.61 42.32 42.02 41.52 39.70 38.32 37.43 37.47 37.40 37.07 36.48 35.87 35.30 34.73 34.22 33.70 33.37 32.74 32.03 31.51 31.16
58.76 58.03 57.35 56.58 55.79 55.16 54.52 53.89 53.22 52.52 51.82 50.97 50.36 49.88 49.45 49.05 48.65 48.38 48.11 47.88 47.43 46.81 46.23 45.69 45.20 44.85 44.49 44.22 43.99 43.69 43.52 43.37 43.00 42.66 42.41 42.25 41.97 41.73 41.65 41.67 42.18 43.31 44.28 44.45 44.15 43.81 43.52 43.19 42.85 42.52 42.10 41.43 39.40 38.05 37.34 37.10 36.77 36.05 35.14 34.30 33.65 33.06 32.56 32.00 31.53 31.06 30.71 30.27 30.17
58.02 57.24 56.48 55.69 55.03 54.26 53.58 52.86 52.20 51.50 50.80 50.01 49.58 49.18 48.96 48.65 48.20 47.88 47.66 47.48 47.03 46.45 45.96 45.65 45.34 45.03 44.77 44.46 44.15 43.71 43.20 42.87 42.40 42.20 42.09 41.94 41.73 41.52 41.35 41.45 42.18 43.35 44.37 44.41 44.19 43.90 43.56 43.27 42.85 42.39 41.55 40.25 38.26 36.98 36.18 35.50 34.90 34.07 33.27 32.67 32.14 31.56 31.14 30.96 30.70 30.45 30.20 29.99 29.76
57.28 56.49 55.67 54.83 54.12 53.40 52.69 51.98 51.32 50.62 49.92 49.31 48.96 48.65 48.47 48.20 47.89 47.62 47.35 47.08 46.45 45.82 45.42 45.24 45.07 44.80 44.49 44.14 43.81 43.43 42.95 42.36 42.07 41.96 41.89 41.86 41.52 41.18 41.00 41.18 41.95 43.06 44.03 44.24 44.07 43.73 43.40 42.98 42.43 41.63 40.33 38.35 36.61 35.60 34.98 34.34 33.57 32.77 32.12 31.63 31.25 30.93 30.65 30.69 30.54 30.33 30.16 30.03 29.75
56.67 55.82 54.85 54.07 53.36 52.65 51.98 51.36 50.57 49.87 49.26 48.82 48.51 48.24 47.93 47.66 47.35 47.26 47.03 46.63 45.82 45.32 45.01 44.92 44.65 44.34 44.04 43.74 43.27 43.11 42.82 42.41 42.04 41.89 41.81 41.82 41.35 40.96 40.74 40.87 41.35 42.33 43.31 43.90 43.65 43.31 42.85 42.39 41.63 40.50 38.75 36.26 34.94 34.30 33.84 33.37 32.86 32.14 31.59 31.06 30.81 30.59 30.55 30.74 30.43 30.22 30.18 30.19 30.70
56.03 55.09 54.27 53.44 52.78 52.11 51.45 50.83 50.04 49.34 48.86 48.51 48.20 48.02 47.71 47.35 47.03 46.85 46.67 46.36 45.55 45.01 44.65 44.52 44.25 43.94 43.68 43.43 43.10 42.85 42.69 42.59 42.31 41.98 41.60 41.39 41.09 40.74 40.43 40.22 40.58 41.31 42.30 43.14 43.02 42.64 42.10 41.51 40.71 39.42 37.54 34.90 33.75 33.28 33.14 32.71 32.18 31.81 31.41 31.13 30.94 30.67 30.63 31.07 30.97 30.96 31.22 32.02 33.84
55.46 54.54 53.64 52.82 52.15 51.57 50.95 50.30 49.60 49.08 48.59 48.29 47.97 47.71 47.44 47.21 46.85 46.72 46.54 46.27 45.64 45.06 44.52 44.07 43.80 43.68 43.56 43.36 43.03 42.65 42.45 42.47 42.36 41.94 41.43 40.88 40.92 40.74 40.40 39.63 39.73 40.42 41.41 42.34 42.22 41.80 41.30 40.72 40.02 39.02 37.37 34.86 33.41 32.88 32.72 32.26 31.62 31.39 31.21 31.11 31.08 30.66 30.46 30.96 31.09 31.37 31.93 33.05 35.72
54.98 54.14 53.21 52.41 51.71 51.18 50.56 49.91 49.39 48.90 48.55 48.11 47.61 47.30 47.08 46.99 46.81 46.67 46.45 46.18 45.60 44.97 44.34 43.85 43.59 43.51 43.49 43.38 42.86 42.35 42.06 41.91 41.76 41.52 41.27 40.80 40.93 41.00 40.57 39.23 39.07 39.59 40.49 41.51 41.39 41.10 40.69 40.24 39.66 38.80 37.20 34.52 33.15 32.73 32.61 32.13 31.48 31.03 30.88 30.93 30.92 30.74 30.47 30.32 30.63 30.82 31.17 31.64 34.22
54.65 53.76 52.88 51.99 51.31 50.66 50.04 49.43 48.95 48.64 48.33 47.84 47.39 47.17 47.12 47.03 46.72 46.49 46.14 45.69 45.20 44.75 44.26 43.77 43.47 43.35 43.32 43.17 42.48 41.88 41.28 40.94 40.87 40.82 40.72 40.59 40.51 40.42 39.92 38.72 38.38 38.61 39.25 40.31 40.73 40.69 40.37 39.96 39.39 38.53 37.03 34.45 33.01 32.58 32.38 31.93 31.25 30.69 30.34 30.42 30.51 30.50 30.24 29.68 29.87 30.06 30.03 29.52 30.91
MSLP
1006.25 1006.53 1006.77 1007.05 1007.29 1007.61 1007.85 1008.09 1008.33 1008.57 1008.81 1009.05 1009.37 1009.69 1010.01 1010.29 1010.61 1010.89 1011.09 1011.29 1011.53 1011.73 1011.97 1012.17 1012.37 1012.57 1012.77 1012.93 1013.13 1013.37 1013.61 1013.81 1014.01 1014.17 1014.37 1014.53 1014.73 1014.89 1015.05 1015.25 1015.49 1015.73 1015.93 1016.17 1016.33 1016.49 1016.65 1016.81 1016.93 1017.09 1017.21 1017.33 1017.57 1017.89 1018.25 1018.61 1018.85 1019.13 1019.37 1019.61 1019.89 1020.09 1020.29 1020.45 1020.73 1020.93 1021.09 1021.29 1021.45
1006.29 1006.53 1006.73 1007.01 1007.25 1007.53 1007.81 1008.09 1008.33 1008.57 1008.77 1009.05 1009.33 1009.61 1009.89 1010.21 1010.53 1010.81 1011.05 1011.29 1011.49 1011.69 1011.89 1012.17 1012.33 1012.57 1012.77 1013.01 1013.17 1013.37 1013.61 1013.81 1014.01 1014.21 1014.41 1014.61 1014.73 1014.89 1015.09 1015.29 1015.57 1015.77 1016.01 1016.25 1016.49 1016.69 1016.81 1016.93 1017.09 1017.29 1017.45 1017.61 1017.89 1018.29 1018.65 1018.97 1019.17 1019.45 1019.69 1019.89 1020.13 1020.33 1020.53 1020.73 1021.01 1021.17 1021.33 1021.53 1021.73
1006.29 1006.53 1006.73 1007.01 1007.29 1007.53 1007.81 1008.09 1008.33 1008.57 1008.77 1009.05 1009.29 1009.57 1009.85 1010.17 1010.45 1010.73 1011.01 1011.25 1011.45 1011.65 1011.89 1012.17 1012.37 1012.57 1012.77 1013.01 1013.17 1013.37 1013.61 1013.81 1014.01 1014.25 1014.45 1014.61 1014.77 1015.01 1015.21 1015.45 1015.69 1015.89 1016.17 1016.37 1016.61 1016.77 1016.97 1017.09 1017.29 1017.45 1017.73 1018.01 1018.33 1018.65 1019.01 1019.29 1019.45 1019.61 1019.89 1020.17 1020.33 1020.53 1020.77 1021.01 1021.29 1021.45 1021.61 1021.77 1021.93
1006.29 1006.53 1006.77 1007.05 1007.29 1007.53 1007.77 1008.01 1008.29 1008.53 1008.73 1009.01 1009.29 1009.57 1009.81 1010.09 1010.37 1010.65 1010.89 1011.17 1011.41 1011.65 1011.89 1012.09 1012.33 1012.57 1012.77 1013.01 1013.17 1013.41 1013.61 1013.81 1014.01 1014.25 1014.45 1014.69 1014.89 1015.09 1015.29 1015.53 1015.81 1016.05 1016.33 1016.53 1016.73 1016.93 1017.13 1017.29 1017.53 1017.81 1018.09 1018.33 1018.61 1018.93 1019.25 1019.45 1019.65 1019.85 1020.09 1020.33 1020.57 1020.73 1020.97 1021.25 1021.45 1021.65 1021.81 1022.01 1022.17
1006.33 1006.61 1006.81 1007.09 1007.29 1007.49 1007.73 1007.97 1008.21 1008.45 1008.73 1008.97 1009.25 1009.53 1009.81 1010.05 1010.33 1010.61 1010.89 1011.13 1011.37 1011.61 1011.81 1012.01 1012.25 1012.49 1012.73 1012.97 1013.17 1013.41 1013.61 1013.85 1014.05 1014.33 1014.53 1014.73 1014.97 1015.21 1015.45 1015.73 1015.93 1016.17 1016.45 1016.69 1016.89 1017.13 1017.29 1017.53 1017.81 1018.13 1018.37 1018.61 1018.89 1019.17 1019.41 1019.61 1019.73 1020.01 1020.29 1020.53 1020.77 1021.01 1021.21 1021.45 1021.69 1021.89 1022.05 1022.25 1022.37
1006.41 1006.65 1006.89 1007.09 1007.29 1007.53 1007.73 1007.93 1008.17 1008.45 1008.69 1008.97 1009.21 1009.49 1009.73 1010.01 1010.29 1010.57 1010.85 1011.09 1011.29 1011.53 1011.73 1012.01 1012.21 1012.49 1012.73 1013.01 1013.17 1013.45 1013.65 1013.93 1014.17 1014.33 1014.57 1014.81 1015.05 1015.29 1015.57 1015.81 1016.01 1016.29 1016.49 1016.77 1017.01 1017.29 1017.49 1017.73 1018.05 1018.37 1018.65 1018.89 1019.17 1019.45 1019.61 1019.73 1019.89 1020.13 1020.41 1020.73 1021.01 1021.21 1021.45 1021.65 1021.89 1022.05 1022.21 1022.37 1022.49
1006.41 1006.65 1006.89 1007.09 1007.29 1007.49 1007.73 1007.93 1008.17 1008.41 1008.65 1008.93 1009.21 1009.49 1009.73 1010.01 1010.25 1010.53 1010.77 1011.01 1011.25 1011.49 1011.73 1011.97 1012.21 1012.49 1012.77 1013.01 1013.21 1013.45 1013.73 1014.01 1014.21 1014.41 1014.61 1014.89 1015.17 1015.45 1015.69 1015.93 1016.17 1016.41 1016.61 1016.89 1017.13 1017.41 1017.69 1017.93 1018.25 1018.57 1018.89 1019.09 1019.41 1019.65 1019.81 1019.89 1020.05 1020.29 1020.57 1020.89 1021.21 1021.45 1021.61 1021.81 1022.01 1022.17 1022.33 1022.45 1022.61
1006.45 1006.65 1006.89 1007.09 1007.29 1007.49 1007.73 1007.93 1008.17 1008.41 1008.69 1008.97 1009.25 1009.49 1009.73 1009.97 1010.21 1010.45 1010.73 1010.97 1011.21 1011.45 1011.65 1011.93 1012.21 1012.45 1012.73 1013.01 1013.21 1013.49 1013.77 1014.01 1014.25 1014.49 1014.73 1015.01 1015.25 1015.53 1015.81 1016.09 1016.33 1016.57 1016.81 1017.01 1017.29 1017.57 1017.85 1018.13 1018.45 1018.73 1019.01 1019.25 1019.57 1019.85 1020.05 1020.13 1020.29 1020.45 1020.73 1021.05 1021.41 1021.61 1021.77 1021.97 1022.13 1022.29 1022.41 1022.53 1022.65
1006.49 1006.73 1006.89 1007.09 1007.29 1007.49 1007.73 1007.93 1008.13 1008.37 1008.69 1008.97 1009.21 1009.45 1009.69 1009.93 1010.17 1010.45 1010.69 1010.93 1011.17 1011.37 1011.61 1011.89 1012.17 1012.45 1012.69 1012.97 1013.25 1013.49 1013.77 1014.01 1014.29 1014.53 1014.77 1015.01 1015.33 1015.65 1015.97 1016.25 1016.53 1016.81 1017.01 1017.29 1017.45 1017.73 1018.01 1018.33 1018.65 1018.93 1019.17 1019.45 1019.73 1020.05 1020.29 1020.37 1020.45 1020.65 1020.93 1021.21 1021.49 1021.73 1021.89 1022.05 1022.25 1022.37 1022.49 1022.61 1022.73
1006.57 1006.73 1006.97 1007.17 1007.37 1007.53 1007.73 1007.93 1008.17 1008.37 1008.65 1008.97 1009.17 1009.45 1009.69 1009.93 1010.17 1010.41 1010.65 1010.89 1011.09 1011.33 1011.61 1011.89 1012.17 1012.45 1012.69 1012.97 1013.29 1013.53 1013.77 1014.01 1014.33 1014.61 1014.89 1015.13 1015.45 1015.81 1016.13 1016.41 1016.69 1016.93 1017.21 1017.49 1017.73 1017.93 1018.21 1018.53 1018.85 1019.17 1019.45 1019.69 1019.97 1020.25 1020.45 1020.61 1020.69 1020.89 1021.17 1021.41 1021.61 1021.81 1022.01 1022.25 1022.41 1022.53 1022.65 1022.73 1022.89
1006.61 1006.81 1007.01 1007.21 1007.45 1007.61 1007.77 1008.01 1008.21 1008.45 1008.69 1008.97 1009.21 1009.45 1009.73 1009.97 1010.17 1010.41 1010.61 1010.85 1011.09 1011.41 1011.65 1011.89 1012.17 1012.41 1012.73 1013.01 1013.29 1013.53 1013.81 1014.05 1014.33 1014.61 1014.93 1015.29 1015.61 1015.93 1016.21 1016.49 1016.81 1017.09 1017.37 1017.69 1017.93 1018.17 1018.41 1018.73 1019.05 1019.33 1019.61 1019.89 1020.17 1020.41 1020.61 1020.73 1020.85 1021.05 1021.33 1021.61 1021.77 1021.89 1022.13 1022.37 1022.61 1022.73 1022.81 1022.93 1023.05
1006.65 1006.85 1007.05 1007.25 1007.45 1007.65 1007.85 1008.01 1008.25 1008.45 1008.73 1009.01 1009.21 1009.45 1009.73 1009.97 1010.17 1010.41 1010.61 1010.89 1011.17 1011.45 1011.69 1011.89 1012.13 1012.41 1012.73 1013.01 1013.29 1013.57 1013.85 1014.09 1014.37 1014.73 1015.09 1015.45 1015.77 1016.05 1016.33 1016.65 1016.93 1017.21 1017.53 1017.85 1018.09 1018.33 1018.61 1018.89 1019.17 1019.45 1019.73 1020.01 1020.33 1020.57 1020.77 1020.89 1021.01 1021.25 1021.49 1021.77 1021.89 1022.01 1022.25 1022.45 1022.69 1022.85 1022.97 1023.09 1023.21
1006.69 1006.93 1007.17 1007.33 1007.53 1007.73 1007.89 1008.13 1008.29 1008.53 1008.77 1009.01 1009.21 1009.45 1009.73 1010.01 1010.17 1010.45 1010.69 1010.93 1011.21 1011.49 1011.73 1011.97 1012.17 1012.41 1012.69 1013.01 1013.29 1013.57 1013.89 1014.17 1014.49 1014.85 1015.21 1015.57 1015.89 1016.17 1016.49 1016.81 1017.09 1017.41 1017.73 1018.01 1018.25 1018.45 1018.73 1019.01 1019.21 1019.45 1019.77 1020.17 1020.45 1020.73 1020.89 1021.05 1021.17 1021.37 1021.65 1021.89 1022.05 1022.21 1022.41 1022.61 1022.77 1022.93 1023.09 1023.25 1023.37
1006.73 1007.01 1007.21 1007.41 1007.61 1007.81 1008.01 1008.21 1008.41 1008.61 1008.85 1009.05 1009.29 1009.49 1009.73 1010.01 1010.21 1010.45 1010.73 1010.97 1011.25 1011.53 1011.77 1012.01 1012.25 1012.49 1012.73 1013.01 1013.29 1013.61 1013.93 1014.29 1014.61 1015.01 1015.37 1015.73 1016.01 1016.33 1016.65 1016.97 1017.25 1017.57 1017.85 1018.17 1018.41 1018.61 1018.89 1019.09 1019.29 1019.49 1019.85 1020.25 1020.57 1020.81 1021.01 1021.17 1021.29 1021.49 1021.73 1021.93 1022.13 1022.33 1022.49 1022.73 1022.89 1023.05 1023.21 1023.37 1023.57
1006.85 1007.09 1007.29 1007.49 1007.73 1007.89 1008.09 1008.33 1008.53 1008.73 1008.93 1009.17 1009.29 1009.53 1009.73 1010.01 1010.21 1010.45 1010.73 1011.01 1011.29 1011.53 1011.77 1012.01 1012.33 1012.61 1012.85 1013.13 1013.45 1013.73 1014.09 1014.49 1014.85 1015.17 1015.57 1015.89 1016.17 1016.45 1016.77 1017.13 1017.41 1017.73 1018.01 1018.33 1018.57 1018.81 1019.01 1019.17 1019.41 1019.69 1020.01 1020.33 1020.61 1020.89 1021.09 1021.29 1021.45 1021.61 1021.85 1022.01 1022.21 1022.41 1022.61 1022.85 1023.01 1023.21 1023.37 1023.57 1023.73
1006.97 1007.17 1007.37 1007.61 1007.77 1008.01 1008.17 1008.41 1008.61 1008.81 1009.01 1009.17 1009.33 1009.53 1009.73 1010.01 1010.25 1010.53 1010.77 1011.05 1011.29 1011.53 1011.77 1012.09 1012.41 1012.73 1013.13 1013.45 1013.73 1014.01 1014.37 1014.73 1015.09 1015.41 1015.73 1016.01 1016.33 1016.65 1016.97 1017.29 1017.61 1017.89 1018.13 1018.41 1018.69 1018.93 1019.17 1019.37 1019.61 1019.89 1020.17 1020.45 1020.69 1020.93 1021.21 1021.41 1021.61 1021.81 1022.01 1022.17 1022.37 1022.57 1022.77 1023.01 1023.17 1023.37 1023.57 1023.73 1023.89
1007.09 1007.29 1007.45 1007.69 1007.89 1008.05 1008.29 1008.49 1008.73 1008.89 1009.05 1009.25 1009.41 1009.61 1009.81 1010.01 1010.29 1010.57 1010.81 1011.01 1011.29 1011.61 1011.97 1012.33 1012.65 1013.01 1013.37 1013.73 1014.01 1014.33 1014.65 1015.01 1015.29 1015.61 1015.89 1016.17 1016.49 1016.81 1017.17 1017.49 1017.73 1018.01 1018.25 1018.45 1018.77 1019.09 1019.33 1019.61 1019.85 1020.13 1020.33 1020.53 1020.77 1021.05 1021.33 1021.57 1021.77 1022.01 1022.21 1022.41 1022.61 1022.77 1023.01 1023.17 1023.37 1023.61 1023.73 1023.89 1024.01
1007.17 1007.41 1007.61 1007.77 1007.97 1008.17 1008.41 1008.61 1008.77 1008.97 1009.17 1009.29 1009.49 1009.69 1009.89 1010.05 1010.33 1010.61 1010.89 1011.17 1011.45 1011.81 1012.17 1012.57 1012.89 1013.25 1013.57 1013.89 1014.25 1014.57 1014.89 1015.21 1015.53 1015.81 1016.09 1016.37 1016.69 1017.01 1017.33 1017.65 1017.93 1018.17 1018.37 1018.61 1018.89 1019.17 1019.45 1019.77 1020.05 1020.29 1020.49 1020.73 1021.01 1021.29 1021.57 1021.81 1022.01 1022.21 1022.45 1022.65 1022.85 1023.01 1023.21 1023.41 1023.61 1023.73 1023.89 1024.01 1024.13
1007.29 1007.49 1007.73 1007.89 1008.09 1008.33 1008.49 1008.65 1008.85 1009.01 1009.21 1009.41 1009.57 1009.73 1009.97 1010.17 1010.45 1010.73 1011.13 1011.45 1011.77 1012.09 1012.41 1012.73 1013.13 1013.45 1013.73 1014.09 1014.45 1014.77 1015.13 1015.45 1015.73 1016.05 1016.33 1016.61 1016.89 1017.21 1017.53 1017.81 1018.09 1018.33 1018.57 1018.81 1019.09 1019.33 1019.61 1019.89 1020.17 1020.41 1020.61 1020.89 1021.21 1021.53 1021.81 1022.05 1022.25 1022.45 1022.69 1022.89 1023.13 1023.29 1023.45 1023.61 1023.77 1023.89 1024.01 1024.13 1024.29
1007.37 1007.61 1007.85 1008.01 1008.21 1008.37 1008.57 1008.73 1008.93 1009.13 1009.29 1009.49 1009.69 1009.89 1010.17 1010.45 1010.69 1011.01 1011.41 1011.81 1012.09 1012.33 1012.61 1012.93 1013.29 1013.69 1014.01 1014.33 1014.69 1015.01 1015.41 1015.69 1016.01 1016.33 1016.61 1016.89 1017.13 1017.45 1017.73 1018.01 1018.25 1018.49 1018.73 1019.01 1019.25 1019.49 1019.81 1020.09 1020.33 1020.61 1020.81 1021.09 1021.45 1021.77 1022.05 1022.29 1022.49 1022.73 1022.93 1023.09 1023.29 1023.49 1023.65 1023.81 1023.93 1024.05 1024.17 1024.33 1024.45
1007.45 1007.69 1007.89 1008.13 1008.33 1008.49 1008.69 1008.89 1009.01 1009.25 1009.45 1009.65 1009.89 1010.13 1010.41 1010.73 1011.01 1011.37 1011.73 1012.01 1012.33 1012.61 1012.89 1013.17 1013.49 1013.89 1014.25 1014.61 1014.93 1015.29 1015.69 1016.01 1016.29 1016.57 1016.85 1017.09 1017.41 1017.65 1017.89 1018.17 1018.41 1018.69 1018.93 1019.17 1019.45 1019.69 1019.97 1020.25 1020.49 1020.77 1021.01 1021.29 1021.61 1021.93 1022.21 1022.45 1022.69 1022.89 1023.13 1023.29 1023.49 1023.69 1023.81 1023.97 1024.09 1024.25 1024.37 1024.49 1024.61
1007.57 1007.81 1008.01 1008.21 1008.41 1008.61 1008.77 1008.97 1009.17 1009.37 1009.61 1009.89 1010.13 1010.37 1010.69 1011.05 1011.37 1011.73 1012.01 1012.25 1012.53 1012.85 1013.17 1013.45 1013.81 1014.17 1014.49 1014.81 1015.17 1015.57 1015.93 1016.25 1016.57 1016.85 1017.09 1017.33 1017.65 1017.93 1018.17 1018.33 1018.61 1018.89 1019.17 1019.41 1019.65 1019.89 1020.17 1020.45 1020.73 1021.01 1021.25 1021.57 1021.81 1022.05 1022.33 1022.57 1022.77 1023.01 1023.25 1023.45 1023.65 1023.85 1024.01 1024.13 1024.29 1024.41 1024.57 1024.69 1024.77
1007.65 1007.89 1008.13 1008.33 1008.53 1008.73 1008.89 1009.09 1009.29 1009.57 1009.85 1010.09 1010.41 1010.69 1011.01 1011.37 1011.69 1011.97 1012.25 1012.49 1012.81 1013.13 1013.45 1013.81 1014.17 1014.49 1014.81 1015.13 1015.41 1015.73 1016.13 1016.45 1016.81 1017.13 1017.37 1017.61 1017.89 1018.17 1018.45 1018.61 1018.85 1019.09 1019.37 1019.65 1019.89 1020.13 1020.37 1020.65 1020.97 1021.25 1021.49 1021.73 1021.97 1022.21 1022.45 1022.65 1022.89 1023.13 1023.37 1023.61 1023.77 1023.97 1024.13 1024.29 1024.45 1024.57 1024.73 1024.85 1024.93
1007.73 1008.01 1008.21 1008.45 1008.65 1008.85 1009.05 1009.29 1009.49 1009.73 1010.05 1010.41 1010.73 1011.01 1011.29 1011.61 1011.93 1012.21 1012.49 1012.81 1013.09 1013.41 1013.73 1014.13 1014.49 1014.89 1015.17 1015.45 1015.73 1016.01 1016.29 1016.61 1017.01 1017.33 1017.65 1017.89 1018.13 1018.41 1018.69 1018.93 1019.17 1019.41 1019.65 1019.93 1020.13 1020.29 1020.49 1020.81 1021.17 1021.45 1021.65 1021.85 1022.05 1022.33 1022.61 1022.85 1023.09 1023.29 1023.45 1023.61 1023.85 1024.05 1024.29 1024.45 1024.61 1024.73 1024.89 1024.97 1025.01
1007.81 1008.05 1008.33 1008.57 1008.73 1008.97 1009.17 1009.41 1009.65 1010.01 1010.33 1010.69 1010.97 1011.29 1011.57 1011.89 1012.17 1012.45 1012.77 1013.09 1013.45 1013.73 1014.09 1014.45 1014.81 1015.13 1015.45 1015.77 1016.05 1016.29 1016.45 1016.73 1017.05 1017.45 1017.81 1018.17 1018.41 1018.65 1018.89 1019.17 1019.45 1019.73 1019.97 1020.17 1020.33 1020.41 1020.57 1020.85 1021.13 1021.41 1021.69 1021.89 1022.17 1022.45 1022.77 1023.05 1023.21 1023.33 1023.49 1023.69 1023.89 1024.09 1024.33 1024.61 1024.73 1024.89 1025.01 1025.05 1025.13
1007.89 1008.17 1008.45 1008.61 1008.89 1009.09 1009.33 1009.61 1009.89 1010.21 1010.61 1010.97 1011.25 1011.53 1011.85 1012.17 1012.45 1012.73 1013.01 1013.37 1013.73 1014.05 1014.37 1014.73 1015.01 1015.37 1015.69 1016.01 1016.25 1016.49 1016.73 1017.01 1017.29 1017.57 1017.89 1018.29 1018.61 1018.89 1019.17 1019.45 1019.73 1019.97 1020.17 1020.33 1020.45 1020.57 1020.73 1020.93 1021.13 1021.33 1021.61 1021.93 1022.21 1022.53 1022.85 1023.17 1023.29 1023.45 1023.61 1023.81 1023.97 1024.17 1024.41 1024.65 1024.89 1025.01 1025.13 1025.17 1025.25
1007.97 1008.29 1008.53 1008.73 1009.01 1009.29 1009.53 1009.81 1010.13 1010.49 1010.89 1011.17 1011.45 1011.73 1012.05 1012.37 1012.69 1013.01 1013.29 1013.65 1014.01 1014.33 1014.61 1014.97 1015.29 1015.61 1015.89 1016.17 1016.45 1016.73 1017.01 1017.29 1017.57 1017.81 1018.05 1018.37 1018.73 1019.01 1019.33 1019.61 1019.89 1020.17 1020.33 1020.41 1020.57 1020.73 1020.89 1021.05 1021.29 1021.45 1021.73 1021.97 1022.25 1022.53 1022.85 1023.17 1023.41 1023.61 1023.73 1023.93 1024.13 1024.33 1024.49 1024.73 1024.93 1025.09 1025.21 1025.33 1025.45
1008.05 1008.33 1008.61 1008.89 1009.17 1009.45 1009.73 1010.05 1010.41 1010.77 1011.09 1011.37 1011.69 1012.01 1012.33 1012.61 1012.93 1013.25 1013.61 1013.89 1014.21 1014.53 1014.89 1015.17 1015.45 1015.73 1016.05 1016.33 1016.61 1016.89 1017.17 1017.45 1017.77 1018.05 1018.33 1018.53 1018.85 1019.13 1019.45 1019.73 1020.01 1020.25 1020.41 1020.53 1020.65 1020.81 1021.01 1021.25 1021.45 1021.65 1021.89 1022.09 1022.37 1022.61 1022.89 1023.17 1023.45 1023.65 1023.89 1024.05 1024.25 1024.45 1024.61 1024.81 1024.97 1025.13 1025.29 1025.45 1025.61
1008.13 1008.41 1008.69 1009.01 1009.33 1009.69 1010.01 1010.33 1010.65 1011.01 1011.29 1011.61 1011.89 1012.25 1012.57 1012.89 1013.17 1013.49 1013.81 1014.13 1014.41 1014.73 1015.01 1015.37 1015.65 1015.89 1016.21 1016.57 1016.85 1017.13 1017.41 1017.69 1017.97 1018.21 1018.45 1018.73 1019.01 1019.29 1019.61 1019.89 1020.13 1020.33 1020.49 1020.65 1020.81 1021.01 1021.21 1021.45 1021.61 1021.85 1022.01 1022.21 1022.49 1022.73 1022.97 1023.21 1023.45 1023.69 1023.93 1024.17 1024.33 1024.57 1024.73 1024.89 1025.01 1025.17 1025.33 1025.49 1025.65
1008.17 1008.45 1008.77 1009.17 1009.53 1009.89 1010.25 1010.57 1010.89 1011.17 1011.49 1011.85 1012.17 1012.49 1012.81 1013.13 1013.45 1013.77 1014.05 1014.33 1014.61 1014.89 1015.17 1015.45 1015.73 1016.05 1016.37 1016.73 1017.01 1017.29 1017.61 1017.89 1018.13 1018.37 1018.61 1018.85 1019.17 1019.49 1019.73 1019.97 1020.21 1020.45 1020.61 1020.77 1020.97 1021.17 1021.37 1021.61 1021.77 1021.97 1022.17 1022.37 1022.57 1022.81 1023.09 1023.33 1023.53 1023.73 1024.01 1024.25 1024.45 1024.61 1024.73 1024.89 1025.05 1025.25 1025.41 1025.57 1025.73
1008.21 1008.57 1008.93 1009.37 1009.77 1010.17 1010.45 1010.73 1011.05 1011.37 1011.73 1012.01 1012.37 1012.73 1013.05 1013.37 1013.73 1014.01 1014.29 1014.53 1014.81 1015.09 1015.33 1015.61 1015.89 1016.25 1016.61 1016.89 1017.17 1017.49 1017.77 1018.05 1018.33 1018.53 1018.73 1018.97 1019.29 1019.61 1019.89 1020.13 1020.33 1020.57 1020.77 1020.93 1021.13 1021.29 1021.53 1021.73 1021.93 1022.13 1022.33 1022.49 1022.73 1022.97 1023.21 1023.45 1023.65 1023.89 1024.09 1024.33 1024.49 1024.65 1024.77 1024.97 1025.17 1025.33 1025.53 1025.65 1025.81
1008.33 1008.73 1009.17 1009.61 1010.01 1010.33 1010.65 1010.93 1011.29 1011.61 1011.93 1012.25 1012.61 1012.93 1013.29 1013.61 1013.93 1014.25 1014.49 1014.73 1015.01 1015.29 1015.57 1015.81 1016.13 1016.45 1016.85 1017.13 1017.45 1017.73 1017.97 1018.21 1018.49 1018.73 1018.89 1019.13 1019.41 1019.69 1019.97 1020.25 1020.49 1020.73 1020.97 1021.13 1021.29 1021.45 1021.65 1021.85 1022.05 1022.29 1022.45 1022.65 1022.89 1023.13 1023.37 1023.61 1023.81 1024.01 1024.21 1024.37 1024.53 1024.73 1024.89 1025.01 1025.29 1025.49 1025.69 1025.81 1026.01
1008.45 1008.93 1009.41 1009.81 1010.17 1010.53 1010.85 1011.17 1011.45 1011.77 1012.13 1012.45 1012.81 1013.17 1013.53 1013.89 1014.17 1014.45 1014.77 1015.01 1015.21 1015.49 1015.73 1016.01 1016.33 1016.65 1017.01 1017.29 1017.61 1017.89 1018.17 1018.37 1018.61 1018.89 1019.09 1019.29 1019.53 1019.81 1020.13 1020.41 1020.73 1020.97 1021.17 1021.29 1021.45 1021.61 1021.81 1022.01 1022.17 1022.41 1022.61 1022.81 1023.01 1023.29 1023.53 1023.73 1023.93 1024.17 1024.37 1024.61 1024.73 1024.89 1025.05 1025.25 1025.45 1025.65 1025.85 1026.01 1026.17
1008.65 1009.13 1009.61 1009.97 1010.37 1010.73 1011.01 1011.37 1011.69 1011.97 1012.33 1012.69 1013.01 1013.41 1013.73 1014.01 1014.33 1014.69 1014.97 1015.21 1015.45 1015.73 1015.97 1016.21 1016.53 1016.81 1017.13 1017.45 1017.69 1017.97 1018.25 1018.53 1018.81 1019.05 1019.29 1019.53 1019.73 1019.97 1020.25 1020.53 1020.89 1021.09 1021.29 1021.41 1021.61 1021.73 1021.93 1022.13 1022.33 1022.53 1022.73 1023.01 1023.21 1023.45 1023.69 1023.89 1024.13 1024.37 1024.57 1024.77 1024.93 1025.09 1025.29 1025.45 1025.61 1025.81 1026.01 1026.17 1026.33
1008.77 1009.25 1009.73 1010.13 1010.53 1010.89 1011.17 1011.53 1011.85 1012.17 1012.49 1012.89 1013.25 1013.61 1013.89 1014.17 1014.49 1014.81 1015.13 1015.41 1015.65 1015.93 1016.25 1016.53 1016.77 1017.05 1017.37 1017.65 1017.85 1018.09 1018.37 1018.69 1019.01 1019.25 1019.45 1019.69 1019.89 1020.13 1020.37 1020.69 1021.01 1021.21 1021.41 1021.57 1021.73 1021.89 1022.01 1022.25 1022.45 1022.69 1022.93 1023.17 1023.45 1023.73 1023.93 1024.17 1024.37 1024.61 1024.77 1024.97 1025.13 1025.33 1025.49 1025.65 1025.85 1026.01 1026.17 1026.33 1026.45
1008.89 1009.29 1009.77 1010.25 1010.65 1011.01 1011.33 1011.65 1011.97 1012.33 1012.65 1013.01 1013.37 1013.77 1014.09 1014.41 1014.73 1015.01 1015.29 1015.53 1015.85 1016.17 1016.45 1016.73 1017.01 1017.29 1017.61 1017.89 1018.17 1018.37 1018.61 1018.85 1019.09 1019.33 1019.61 1019.81 1020.05 1020.29 1020.53 1020.81 1021.13 1021.37 1021.53 1021.69 1021.85 1022.01 1022.17 1022.41 1022.61 1022.89 1023.13 1023.37 1023.69 1023.97 1024.17 1024.41 1024.61 1024.85 1025.01 1025.17 1025.33 1025.57 1025.73 1025.89 1026.05 1026.21 1026.37 1026.49 1026.65
1009.01 1009.37 1009.85 1010.33 1010.73 1011.17 1011.45 1011.77 1012.09 1012.45 1012.81 1013.17 1013.49 1013.89 1014.21 1014.57 1014.93 1015.21 1015.45 1015.61 1015.93 1016.29 1016.61 1016.89 1017.21 1017.45 1017.73 1018.01 1018.33 1018.61 1018.85 1019.01 1019.17 1019.41 1019.73 1019.97 1020.21 1020.45 1020.69 1020.97 1021.25 1021.49 1021.69 1021.85 1022.01 1022.17 1022.37 1022.61 1022.81 1023.05 1023.29 1023.57 1023.85 1024.13 1024.33 1024.57 1024.81 1025.01 1025.21 1025.41 1025.61 1025.73 1025.89 1026.05 1026.25 1026.41 1026.57 1026.65 1026.77
1009.25 1009.57 1009.93 1010.41 1010.85 1011.25 1011.61 1011.89 1012.25 1012.61 1012.93 1013.29 1013.65 1013.97 1014.33 1014.65 1015.01 1015.33 1015.57 1015.69 1015.93 1016.33 1016.73 1017.09 1017.41 1017.69 1017.93 1018.17 1018.45 1018.85 1019.13 1019.29 1019.41 1019.61 1019.85 1020.13 1020.37 1020.61 1020.81 1021.09 1021.41 1021.69 1021.89 1022.01 1022.17 1022.37 1022.57 1022.81 1023.05 1023.29 1023.53 1023.73 1023.97 1024.17 1024.45 1024.69 1024.93 1025.17 1025.33 1025.53 1025.73 1025.93 1026.09 1026.25 1026.41 1026.57 1026.73 1026.81 1026.89
1009.49 1009.77 1010.09 1010.53 1010.93 1011.33 1011.73 1012.05 1012.37 1012.73 1013.05 1013.45 1013.81 1014.17 1014.45 1014.77 1015.13 1015.45 1015.65 1015.81 1015.97 1016.33 1016.73 1017.21 1017.57 1017.89 1018.17 1018.37 1018.69 1019.01 1019.37 1019.61 1019.73 1019.89 1020.05 1020.33 1020.61 1020.77 1020.93 1021.17 1021.53 1021.85 1022.05 1022.21 1022.41 1022.57 1022.77 1023.01 1023.29 1023.53 1023.73 1023.89 1024.05 1024.25 1024.45 1024.73 1025.01 1025.25 1025.45 1025.65 1025.89 1026.09 1026.33 1026.45 1026.61 1026.73 1026.81 1026.89 1026.93
1009.69 1010.01 1010.33 1010.69 1011.05 1011.45 1011.85 1012.21 1012.57 1012.89 1013.17 1013.49 1013.89 1014.25 1014.61 1014.89 1015.25 1015.57 1015.77 1015.97 1016.13 1016.41 1016.81 1017.29 1017.69 1018.01 1018.33 1018.53 1018.85 1019.21 1019.61 1019.89 1020.17 1020.29 1020.37 1020.57 1020.77 1021.01 1021.17 1021.37 1021.65 1021.93 1022.21 1022.41 1022.61 1022.81 1023.01 1023.21 1023.45 1023.65 1023.89 1024.09 1024.21 1024.37 1024.57 1024.81 1025.01 1025.33 1025.61 1025.81 1026.01 1026.21 1026.45 1026.69 1026.77 1026.89 1026.97 1027.05 1027.13
1009.89 1010.17 1010.49 1010.85 1011.21 1011.61 1011.97 1012.37 1012.73 1013.05 1013.37 1013.61 1013.97 1014.33 1014.65 1015.01 1015.29 1015.61 1015.89 1016.05 1016.29 1016.49 1016.85 1017.29 1017.73 1018.13 1018.45 1018.73 1019.01 1019.37 1019.77 1020.17 1020.45 1020.65 1020.73 1020.89 1021.01 1021.25 1021.45 1021.61 1021.81 1022.09 1022.37 1022.61 1022.77 1022.97 1023.17 1023.33 1023.61 1023.81 1024.01 1024.21 1024.37 1024.49 1024.65 1024.85 1025.09 1025.37 1025.69 1025.89 1026.13 1026.33 1026.61 1026.85 1026.97 1027.09 1027.17 1027.25 1027.33
Wind_Speed
11 10 10 9 8 8 7 7 7 7 7 7 7 7 7 7 7 7 6 5 5 5 5 5 5 6 7 9 9 9 9 9 9 9 8 8 8 8 9 9 9 9 9 8 7 7 6 6 4 4 3 4 7 8 8 8 9 9 9 8 8 8 9 10 9 9 9 9 7
12 11 10 10 9 8 7 7 7 7 6 6 7 7 7 7 7 7 6 6 5 5 5 5 6 7 8 9 9 9 9 10 10 9 9 9 9 9 9 9 10 10 9 9 8 6 6 6 5 5 5 5 8 8 8 8 8 9 10 9 7 7 8 8 9 9 9 8 7
12 11 11 10 9 8 7 7 7 7 7 7 7 7 7 7 7 7 7 6 6 6 6 6 7 8 9 10 9 9 9 10 10 9 9 8 9 9 10 10 11 10 10 9 8 7 6 7 7 6 6 7 8 8 8 7 8 9 9 9 6 6 6 7 7 7 7 6 7
12 11 11 10 10 10 9 8 8 9 8 7 7 7 7 7 6 6 7 7 7 6 6 7 8 8 9 9 9 9 9 10 10 10 9 9 10 11 11 11 11 11 10 9 9 9 8 9 7 7 7 8 9 8 7 6 7 8 8 7 6 6 6 6 6 6 6 6 5
12 11 10 10 11 10 9 9 9 9 8 7 7 7 7 7 7 7 7 7 7 7 7 8 9 9 9 9 9 10 10 10 10 10 10 10 11 11 12 12 11 11 11 10 10 10 10 9 7 7 7 8 7 6 6 7 8 8 7 6 6 6 6 6 6 6 5 5 4
12 11 10 10 11 10 9 9 10 10 9 8 8 8 8 7 7 7 7 8 8 8 9 10 10 9 9 9 10 10 10 10 10 10 10 11 11 11 12 11 11 11 11 11 11 11 10 9 7 7 7 7 7 7 7 8 8 8 8 7 6 6 6 6 6 5 5 5 5
12 11 11 11 11 11 10 10 10 10 9 9 10 10 9 9 9 9 9 8 8 9 9 9 10 10 10 10 10 10 10 10 10 11 11 12 11 11 11 11 11 11 11 12 12 11 10 9 7 7 7 7 6 7 7 8 8 9 9 8 7 6 6 7 5 5 6 7 7
12 11 11 11 11 11 11 11 11 10 9 9 10 11 11 11 11 10 10 9 9 8 8 9 10 11 11 10 10 11 11 11 10 11 11 12 12 12 12 11 11 12 12 11 11 11 10 8 7 7 7 6 6 7 8 9 10 10 10 10 7 6 6 6 5 5 6 8 8
11 11 11 11 11 12 12 12 11 11 10 10 11 11 12 12 12 11 10 9 8 8 9 9 11 12 12 12 12 12 11 11 11 11 12 12 13 13 12 12 12 12 12 11 12 12 11 8 7 7 6 6 7 7 8 10 11 12 11 9 8 7 7 6 6 6 7 8 9
11 11 11 11 11 12 12 12 12 12 12 12 12 12 12 11 11 11 10 8 8 9 10 10 12 12 12 13 12 12 11 11 12 12 13 13 13 13 13 12 13 12 12 11 11 11 10 9 8 8 8 8 9 9 10 11 12 12 10 8 9 9 9 8 8 8 8 9 10
11 11 11 11 11 12 12 12 11 12 12 12 13 13 12 11 11 10 9 9 10 10 11 11 12 13 13 12 12 12 11 11 11 12 13 13 14 14 14 13 13 13 12 11 10 9 9 9 10 11 11 10 10 10 11 11 12 12 11 9 10 11 11 10 9 8 9 10 11
11 11 11 11 11 12 12 11 11 12 12 13 13 13 12 11 11 11 11 11 11 11 12 12 12 13 12 12 12 12 12 12 12 13 13 14 14 15 14 14 14 13 13 11 10 9 9 10 11 13 13 12 10 9 10 12 13 13 12 11 11 11 11 11 9 8 8 9 10
11 11 11 11 11 11 11 11 11 12 13 13 13 13 12 12 12 12 12 12 12 12 11 12 12 12 12 12 12 12 12 12 13 13 14 14 15 15 15 14 14 13 12 11 10 9 10 11 13 14 14 12 10 10 10 12 12 13 12 12 11 11 11 11 10 9 9 10 10
12 12 12 12 11 11 11 11 11 11 12 13 13 12 12 12 12 12 12 13 13 12 12 12 11 11 11 12 12 13 13 13 14 14 14 14 14 14 14 13 13 13 12 11 11 11 12 12 13 14 15 14 12 11 11 12 12 12 12 12 12 12 12 11 11 10 10 11 10
12 12 12 12 11 11 11 11 11 11 12 13 12 12 12 12 12 12 12 13 13 13 12 12 11 11 11 12 13 13 14 14 15 15 15 15 14 14 14 13 13 12 12 11 11 12 13 13 14 15 15 14 14 13 12 12 12 12 12 12 12 12 12 11 11 10 10 10 10
12 12 12 11 11 11 11 11 10 10 11 11 12 12 12 11 12 12 13 13 13 12 12 12 12 12 12 13 14 14 15 15 15 15 15 14 15 15 14 14 13 13 13 13 13 13 13 13 14 14 14 14 14 13 13 12 12 12 12 12 12 12 12 11 11 10 10 10 9
13 12 11 11 11 11 11 10 10 10 11 11 12 12 12 11 11 12 12 12 12 12 13 13 12 12 13 13 13 14 14 14 14 14 14 14 15 15 14 14 13 13 13 14 14 14 13 13 13 13 14 14 14 14 13 13 12 13 13 12 12 12 12 11 11 10 10 10 9
13 12 11 11 11 11 11 11 11 11 11 11 11 11 11 11 11 11 11 12 13 14 15 14 13 13 14 14 13 12 12 13 13 13 13 14 15 15 14 14 13 13 14 14 15 14 14 14 14 14 14 14 14 14 13 13 13 13 13 13 12 12 11 11 10 9 9 10 9
13 12 11 10 11 11 11 11 11 11 11 11 11 11 11 12 12 12 13 13 14 15 16 15 14 14 14 15 14 13 12 13 14 14 14 14 15 15 15 14 14 14 14 14 14 15 15 15 14 14 14 14 14 14 13 13 13 13 13 13 12 11 11 10 10 9 9 10 9
13 12 11 10 10 11 11 11 11 11 11 11 11 12 12 13 14 14 14 14 15 15 16 16 15 15 15 15 15 14 13 12 14 14 14 14 14 15 15 15 15 15 14 14 14 14 15 15 15 15 15 15 15 15 14 14 13 13 12 12 12 11 11 10 10 10 10 10 10
13 12 11 10 10 10 11 11 11 11 11 11 12 13 14 14 15 15 15 15 15 16 16 16 16 16 16 16 15 14 13 12 13 14 14 14 15 15 15 15 15 14 14 13 13 14 14 15 15 15 15 15 15 15 14 13 13 13 12 12 11 11 11 11 11 10 10 10 10
12 11 11 10 10 10 11 11 11 12 12 13 14 14 15 15 15 15 15 15 16 16 16 16 16 16 16 16 16 15 13 12 13 13 13 14 14 14 14 14 14 14 13 12 13 13 14 15 15 15 14 14 14 14 14 14 14 13 13 13 12 12 11 11 11 10 10 10 10
12 11 10 10 10 11 11 12 12 12 13 14 15 15 16 16 16 16 16 16 16 16 16 15 15 16 16 16 16 15 15 14 14 14 14 14 13 13 13 12 13 13 12 11 12 12 13 14 14 13 13 12 13 13 14 14 14 13 13 13 13 12 11 11 11 10 10 10 9
12 11 10 10 11 12 12 13 13 13 14 15 15 16 16 16 16 16 16 16 16 16 15 14 14 15 16 16 16 16 16 16 16 15 15 14 14 13 13 12 11 11 10 9 11 12 13 12 12 12 12 12 13 13 13 13 12 12 13 13 13 12 12 11 11 10 10 9 9
13 12 11 11 12 13 13 13 14 15 15 15 16 16 16 16 16 16 16 17 17 16 16 16 15 15 15 15 15 15 16 17 17 17 16 15 14 13 12 11 10 9 9 11 16 18 18 15 13 12 12 12 13 13 13 12 12 12 12 13 13 13 12 12 11 10 10 10 9
13 12 12 13 14 14 14 14 15 15 16 16 16 16 16 16 16 16 17 17 16 16 16 16 15 15 14 14 15 15 15 15 16 16 16 15 14 13 12 10 9 8 9 14 20 22 21 20 18 15 13 12 13 13 12 11 11 12 12 12 12 13 13 12 11 10 10 10 9
13 13 13 14 14 15 15 15 15 16 16 16 16 16 16 15 15 16 17 17 16 16 15 15 14 14 14 14 15 15 14 14 14 15 16 15 15 14 12 10 9 8 11 18 21 23 22 22 21 19 16 13 12 12 11 11 11 11 11 11 11 12 12 12 12 11 11 10 10
14 14 14 15 15 15 15 15 16 16 16 16 16 16 16 16 16 16 16 16 16 15 14 13 12 12 11 12 14 15 15 14 14 14 14 15 15 14 13 11 10 11 15 21 22 23 23 23 23 21 18 15 12 12 12 12 11 11 10 10 11 11 11 11 11 11 11 10 9
14 15 15 16 15 15 15 16 16 16 16 16 16 16 16 16 16 16 16 16 15 14 12 11 10 10 10 11 13 14 15 14 13 13 13 14 14 13 13 12 12 14 18 23 23 23 23 23 23 22 20 17 12 10 10 10 10 10 10 9 9 10 10 10 10 10 10 10 9
15 15 16 16 16 15 15 15 16 15 15 15 15 16 16 16 16 15 15 15 14 13 11 10 11 11 12 13 13 13 13 13 13 13 14 15 15 14 13 13 13 15 19 23 23 23 24 24 23 23 21 18 14 10 9 9 9 9 9 8 9 9 9 9 9 9 8 8 8
15 15 16 16 15 15 15 15 15 15 15 15 15 16 15 15 15 14 14 13 13 12 12 13 14 14 14 13 13 13 13 12 12 13 14 15 15 15 14 14 14 16 19 23 23 24 24 24 23 22 21 18 14 10 9 9 8 8 8 8 9 9 9 9 8 8 8 8 8
16 16 16 16 16 15 15 16 15 16 16 16 16 15 15 14 14 13 13 13 13 14 14 15 15 15 15 14 14 13 13 13 13 13 14 15 15 15 15 14 14 16 19 23 23 24 23 23 23 22 20 18 14 11 9 9 9 8 8 9 9 9 9 8 8 9 9 9 9
17 17 17 16 16 16 16 16 16 16 16 16 15 15 15 14 13 13 13 13 13 14 15 15 16 16 15 15 14 14 14 14 14 15 15 15 16 16 15 14 13 16 20 23 23 23 23 23 22 22 20 18 14 11 10 10 9 8 8 8 9 9 9 9 9 9 9 9 8
17 17 17 17 16 16 16 16 16 16 16 16 15 15 14 14 14 14 13 12 12 13 14 14 15 15 15 15 15 15 14 14 14 15 15 15 16 16 15 13 12 15 20 23 23 23 23 23 22 22 20 18 13 11 10 10 9 9 9 9 9 9 10 10 10 9 9 9 8
18 18 18 17 16 16 16 16 16 16 16 16 16 15 14 14 14 14 13 13 13 13 13 13 14 14 14 14 14 15 15 15 15 15 15 15 15 15 15 13 14 17 21 23 23 23 23 23 22 21 19 16 12 10 10 11 10 10 11 11 11 10 10 10 9 9 9 9 9
18 19 18 18 17 17 17 17 17 17 17 16 16 15 15 14 14 14 14 14 14 14 14 13 13 14 14 14 14 14 15 16 16 16 15 15 15 15 15 15 16 18 21 22 23 23 23 23 22 21 18 13 10 10 10 10 10 11 11 11 11 11 10 10 9 9 9 8 8
18 19 19 18 17 17 17 17 17 17 17 16 16 16 15 15 14 13 13 14 15 15 14 14 14 14 14 14 13 13 13 14 16 16 16 15 15 16 16 16 16 18 20 22 22 23 22 22 22 19 16 12 10 10 10 9 9 10 10 11 10 10 9 9 8 8 8 8 8
17 18 18 18 18 17 17 17 17 17 17 16 16 15 15 15 14 13 13 14 15 15 15 14 14 14 14 14 14 13 13 13 15 16 16 16 15 16 16 16 16 16 18 21 22 22 22 22 21 18 15 11 10 10 10 9 9 9 9 9 9 8 8 7 7 7 8 9 11
17 18 18 18 18 17 17 17 17 17 17 17 16 15 14 14 13 12 13 13 15 15 16 15 14 14 14 15 14 14 13 13 13 14 15 15 15 16 16 16 15 15 17 20 21 22 22 21 20 18 15 11 10 9 9 9 9 9 9 9 8 8 7 6 6 6 7 10 14
17 17 18 18 17 17 17 17 17 16 16 16 16 15 15 14 13 13 13 13 14 15 16 16 15 15 14 15 14 14 13 12 12 13 14 15 15 16 16 15 15 15 17 20 21 21 21 21 20 18 15 10 9 8 9 9 9 9 9 8 8 7 7 6 6 5 6 8 12
17 17 18 17 17 17 17 17 16 16 15 15 15 15 14 14 13 13 13 13 15 15 15 16 16 16 15 14 14 14 14 13 12 12 13 14 15 15 15 14 14 15 16 18 20 21 21 21 20 18 15 10 8 8 8 8 9 10 9 8 8 7 6 6 5 5 5 5 6
Wind_Direction
138 139 140 140 139 138 138 138 138 139 139 137 137 138 140 141 142 143 144 143 141 140 140 141 143 144 144 145 141 139 137 137 137 135 133 131 130 127 123 119 117 115 112 106 99 94 88 82 77 76 79 86 82 78 75 74 76 76 77 77 76 75 74 75 75 75 77 79 82
139 139 139 138 137 135 135 136 137 137 136 135 135 137 138 139 140 141 143 143 141 139 138 138 139 142 143 145 142 139 138 139 138 135 131 128 125 121 117 114 113 110 107 102 98 94 89 83 78 75 74 76 79 80 78 78 82 83 82 80 80 78 77 76 76 77 78 80 81
139 139 138 138 137 136 136 138 138 136 134 132 133 134 136 136 138 139 141 141 139 138 137 137 140 142 143 144 142 139 138 139 136 133 129 125 120 116 112 110 107 105 102 100 96 92 88 84 80 78 79 80 84 85 86 83 85 86 84 80 80 79 79 78 77 77 78 79 80
138 138 138 137 137 137 138 139 138 136 133 132 132 132 133 134 135 137 138 138 137 137 138 140 141 143 144 144 141 139 136 135 132 129 126 122 116 113 110 109 106 104 101 98 94 90 87 84 82 81 83 87 90 92 94 94 90 88 86 82 81 81 81 81 80 80 81 82 81
138 138 138 138 138 138 138 138 137 135 133 132 132 132 132 132 133 135 136 138 139 140 140 140 141 143 144 143 139 135 132 129 127 126 123 119 115 112 111 110 109 106 103 99 95 92 88 85 84 83 84 85 87 91 95 98 94 92 89 84 82 82 84 85 85 86 87 87 84
138 139 139 139 138 138 137 138 135 133 132 132 132 132 132 132 134 136 137 139 139 138 138 138 140 141 142 141 136 131 128 126 125 124 122 119 114 112 111 110 110 108 106 104 100 95 92 89 88 86 85 85 86 88 92 96 95 94 91 87 84 85 87 89 91 92 92 91 88
139 140 141 141 140 139 138 137 134 132 131 131 131 132 132 133 134 135 136 136 137 137 137 138 140 141 141 140 133 129 126 126 125 124 122 120 116 113 111 109 107 106 106 105 101 97 93 91 91 90 89 88 87 85 87 92 95 95 94 92 89 89 90 92 95 96 97 96 92
140 142 142 141 140 138 137 136 133 132 132 132 132 131 131 132 133 133 134 134 136 137 138 137 140 141 141 138 132 129 127 127 127 125 123 120 117 113 109 105 102 101 100 100 99 97 95 92 92 92 92 91 89 87 88 92 95 96 96 96 96 96 96 97 98 99 99 98 94
141 142 141 139 138 137 136 134 133 132 132 132 131 131 131 131 132 132 133 135 136 136 136 136 139 139 138 135 131 130 130 129 127 125 123 120 115 110 107 103 101 100 98 97 98 98 97 94 92 91 91 92 92 92 93 94 95 96 96 99 100 99 97 94 93 94 94 93 90
141 140 139 137 137 136 134 132 131 131 130 129 130 130 130 130 131 132 133 135 133 132 133 136 138 138 136 133 132 132 132 130 128 125 122 118 114 111 109 107 105 102 100 98 98 97 97 96 95 93 92 93 95 96 96 96 96 96 97 98 101 100 96 92 91 90 90 89 86
139 138 137 136 137 135 133 132 131 130 129 129 129 130 130 130 131 131 132 131 129 130 133 136 137 137 135 133 133 133 132 131 127 124 120 116 114 112 111 109 107 105 103 101 100 99 99 100 101 99 97 96 96 97 98 98 98 98 99 100 102 101 99 96 93 91 89 88 87
136 136 135 135 136 135 133 132 131 130 130 130 131 131 131 131 131 131 130 128 128 130 132 134 135 135 134 134 134 133 131 129 125 121 118 116 114 112 111 109 107 106 105 104 103 103 104 107 107 105 102 99 98 100 101 102 102 102 103 104 103 102 101 99 96 94 91 90 88
135 135 135 135 135 134 132 132 131 131 131 132 132 132 132 132 132 131 130 129 129 130 132 133 133 133 133 134 133 132 129 125 122 119 117 116 114 113 111 109 108 107 106 106 106 107 109 110 109 107 105 103 103 105 106 106 105 106 107 107 105 102 101 100 98 96 94 92 91
135 135 136 136 135 133 132 131 131 132 133 133 133 132 132 132 132 131 130 130 131 131 132 132 132 132 132 131 129 127 124 120 118 116 115 115 114 112 111 110 109 108 108 108 108 109 111 111 109 108 107 108 108 108 108 107 108 108 109 109 106 104 101 100 98 97 95 94 93
136 136 136 136 135 133 132 132 132 133 134 134 133 133 133 132 132 132 131 132 132 133 133 132 129 125 122 120 119 117 116 114 114 114 113 113 113 112 111 111 110 110 110 109 108 108 109 109 109 109 110 111 111 110 109 108 108 108 107 106 105 103 101 100 98 97 97 97 96
136 136 136 135 134 133 132 132 133 134 134 134 134 133 133 132 132 132 133 133 133 131 128 124 120 115 112 109 109 110 110 111 112 112 113 113 113 112 112 112 111 111 111 110 109 107 107 107 108 109 111 112 111 110 109 108 106 104 103 102 101 100 100 99 98 97 97 98 98
137 137 136 135 134 133 132 133 134 135 135 134 133 133 132 132 133 132 132 131 127 122 118 115 113 110 108 107 107 108 109 110 111 112 113 114 113 113 112 112 112 112 111 111 109 108 107 106 108 110 110 110 108 107 106 104 102 100 99 98 97 97 97 97 97 97 97 97 97
137 137 136 135 133 132 132 132 134 134 134 133 132 132 131 131 130 127 123 119 116 114 113 111 110 110 109 109 108 108 109 111 111 112 112 113 113 112 112 111 111 110 110 110 110 110 110 109 110 110 109 107 105 103 102 100 99 98 97 96 95 94 94 94 95 96 96 96 95
137 137 136 134 132 131 131 131 132 132 131 130 129 127 125 123 120 116 112 110 111 111 111 110 109 108 108 108 108 108 108 110 110 110 110 111 111 111 111 111 110 109 109 109 110 111 111 112 112 110 108 105 103 102 100 99 98 97 96 95 94 93 93 93 93 93 93 92 91
137 137 136 134 131 130 129 129 129 128 126 124 121 118 115 113 111 110 109 109 110 110 109 109 108 108 107 107 106 106 107 107 108 108 108 109 110 110 111 111 110 110 110 110 111 111 112 112 111 109 107 106 105 104 102 101 99 98 96 95 94 94 94 94 93 91 90 88 87
136 136 135 132 130 128 127 126 124 122 120 117 114 111 109 107 107 108 109 110 109 107 107 107 108 108 107 107 106 106 105 105 106 107 107 107 108 109 110 111 111 111 111 111 111 112 112 112 110 109 107 107 107 106 106 104 102 101 99 98 97 95 94 94 92 90 88 86 85
135 134 133 131 128 126 123 122 120 118 116 113 110 108 107 107 107 108 108 108 106 105 105 105 106 107 107 107 107 106 105 104 104 104 105 105 106 107 109 110 111 110 110 111 111 111 110 109 109 108 108 108 109 109 108 108 106 104 103 101 100 98 95 93 91 89 88 87 86
133 132 131 129 126 123 121 120 119 116 114 110 108 107 107 107 108 108 107 106 105 104 104 104 104 105 106 107 107 107 106 105 103 102 102 104 105 105 106 106 106 106 107 108 109 110 109 108 108 108 108 109 109 109 109 108 108 108 107 106 103 100 97 94 92 91 90 89 89
132 131 131 129 126 124 122 121 118 115 112 109 108 108 109 109 108 107 106 105 105 105 104 104 104 105 105 106 107 108 108 108 106 105 104 104 104 104 103 101 100 101 104 109 113 115 115 113 112 112 111 110 109 109 108 109 110 111 111 109 106 103 99 95 94 93 93 93 93
131 131 131 129 128 126 124 121 117 114 111 110 110 110 110 110 110 108 107 106 105 105 105 106 106 106 106 106 107 108 109 110 110 109 108 107 105 104 103 101 101 102 107 114 118 119 119 119 120 119 116 114 112 111 111 111 112 113 112 111 109 106 103 99 97 97 97 97 96
131 131 131 130 129 127 124 120 116 113 112 111 111 111 111 111 110 109 108 107 106 107 108 108 109 109 109 110 109 109 109 110 111 112 112 111 109 107 105 105 106 107 114 122 122 122 121 121 121 120 119 117 116 115 114 113 113 112 111 110 109 108 107 106 104 102 100 97 95
133 133 132 131 130 127 123 117 114 113 113 113 113 113 113 113 112 110 109 109 109 109 109 110 110 111 112 111 111 111 111 111 112 113 113 113 112 111 109 109 112 116 122 126 125 124 122 121 120 120 119 118 118 118 117 116 114 112 110 109 110 110 111 111 111 108 105 100 96
135 134 133 132 130 125 120 115 114 115 115 115 115 114 114 113 113 112 112 112 112 111 111 111 112 113 112 112 112 113 113 113 113 113 113 113 112 113 114 115 119 124 128 129 126 124 123 121 121 120 119 117 117 117 117 117 116 114 112 112 112 112 113 114 115 113 111 108 104
136 135 134 132 127 122 118 116 117 117 117 116 115 115 114 114 114 115 115 115 114 114 115 116 115 113 112 113 113 113 113 114 114 114 113 113 112 113 116 119 123 127 129 129 126 124 123 122 121 121 120 119 117 116 117 117 117 116 116 115 117 118 119 120 120 119 118 116 114
137 135 132 129 124 121 119 119 118 118 117 115 115 115 115 115 116 116 116 116 116 117 118 118 116 114 114 115 115 114 114 115 116 116 116 115 115 117 119 122 125 128 129 128 126 124 123 123 122 121 119 118 116 115 115 116 116 116 117 119 121 122 122 121 120 118 116 114 111
136 132 128 123 121 120 119 119 118 118 117 116 117 117 116 116 116 117 117 117 116 116 115 114 114 114 115 115 115 115 115 116 116 117 118 118 119 120 121 123 125 127 128 128 126 125 124 123 122 120 119 117 115 114 113 114 114 116 118 120 121 120 118 115 111 108 105 103 101
133 127 123 120 120 120 120 119 118 118 117 117 116 116 115 115 115 115 115 115 115 115 114 114 114 113 113 113 114 115 116 117 117 118 119 120 120 121 121 122 124 126 128 128 126 125 124 123 121 120 118 116 113 111 112 112 112 112 113 113 113 111 109 106 103 101 100 99 99
127 123 121 121 121 121 120 120 119 118 117 116 115 115 114 114 114 114 114 114 116 116 116 116 116 116 116 117 117 116 116 117 118 119 119 120 120 121 121 121 123 127 129 129 127 125 124 122 120 119 117 115 112 110 110 110 110 108 105 103 101 99 98 98 99 99 99 99 99
124 123 122 122 122 122 121 121 120 119 117 115 115 115 115 116 116 116 116 116 116 116 116 116 117 118 119 119 119 119 119 118 119 119 120 120 120 121 121 123 125 129 130 129 127 125 124 122 120 118 116 113 110 107 106 105 104 102 100 98 95 93 92 93 94 96 97 97 97
125 125 124 124 124 124 123 122 121 119 118 117 116 117 117 118 118 118 118 118 116 114 113 114 115 116 116 117 118 119 120 120 120 121 121 122 122 122 123 124 127 130 131 129 127 126 124 122 119 117 114 110 107 104 103 102 102 100 99 97 94 92 91 90 91 92 92 93 94
128 127 126 126 126 126 125 124 122 121 120 119 119 119 119 119 119 119 119 118 116 114 114 114 115 115 116 116 117 118 121 123 123 123 123 123 123 123 124 125 127 130 131 129 127 125 123 121 119 116 113 110 107 106 105 103 102 101 99 97 95 94 92 92 92 91 91 91 92
129 128 128 128 128 128 127 126 124 123 122 122 122 122 122 121 120 121 121 120 118 116 116 116 117 117 117 118 118 119 121 124 124 125 125 125 125 125 125 126 127 129 130 129 127 125 123 121 119 117 114 112 111 110 109 107 105 103 100 98 96 94 93 93 93 93 93 93 94
129 129 128 128 129 129 128 127 126 125 125 124 124 123 123 123 123 124 125 123 121 119 118 117 117 117 117 117 117 118 119 121 124 125 125 126 127 127 127 126 127 128 128 128 126 124 123 121 119 118 117 115 116 115 114 111 109 107 104 101 97 93 91 92 93 95 97 100 100
130 129 128 128 129 129 129 128 127 127 126 125 125 124 124 124 125 127 127 125 123 121 119 117 117 116 116 116 116 116 117 118 121 123 124 126 127 127 127 126 126 126 127 127 126 124 123 122 121 120 119 117 118 117 117 115 113 110 107 103 99 94 90 90 92 96 100 104 105
130 129 128 128 128 129 129 128 128 128 127 127 126 126 126 126 127 127 126 124 122 120 118 117 117 117 116 116 115 114 114 114 117 120 122 124 125 126 125 124 124 125 126 127 126 125 124 124 124 123 121 118 118 118 118 117 115 112 109 106 103 99 94 89 90 92 96 101 106
131 130 129 128 128 128 128 127 127 127 127 126 127 127 127 127 127 127 127 125 124 122 120 118 118 117 116 115 113 113 112 112 114 117 120 121 122 123 124 123 123 124 125 127 127 127 126 126 125 125 124 121 120 120 120 119 117 114 112 110 108 106 103 97 93 92 93 96 104